�������C�����ː����j�^�v���󋵏��
Date,Time,Cs137(Bq/L),Cs134(Bq/L),�S��(Bq/L)
2020/03/14,00:00,0.11,ND,22
2020/03/14,00:10,0.12,ND,24
2020/03/14,00:20,0.13,ND,24
2020/03/14,00:30,0.14,ND,29
2020/03/14,00:40,0.14,ND,28
2020/03/14,00:50,0.14,ND,31
2020/03/14,01:00,0.18,ND,32
2020/03/14,01:10,0.15,ND,31
2020/03/14,01:20,0.14,ND,32
2020/03/14,01:30,0.15,ND,31
2020/03/14,01:40,0.15,ND,33
2020/03/14,01:50,0.14,ND,32
2020/03/14,02:00,0.15,ND,30
2020/03/14,02:10,0.17,ND,27
2020/03/14,02:20,0.18,ND,26
2020/03/14,02:30,0.17,ND,23
2020/03/14,02:40,0.15,ND,21
2020/03/14,02:50,0.16,ND,18
2020/03/14,03:00,0.13,ND,18
2020/03/14,03:10,0.14,ND,20
2020/03/14,03:20,0.12,ND,19
2020/03/14,03:30,0.12,ND,20
2020/03/14,03:40,0.11,ND,22
2020/03/14,03:50,0.11,ND,21
2020/03/14,04:00,0.093,ND,24
2020/03/14,04:10,0.082,ND,22
2020/03/14,04:20,0.081,ND,21
2020/03/14,04:30,0.083,ND,22
2020/03/14,04:40,0.11,ND,20
2020/03/14,04:50,0.10,ND,19
2020/03/14,05:00,0.12,ND,20
2020/03/14,05:10,0.12,ND,22
2020/03/14,05:20,0.13,ND,22
2020/03/14,05:30,0.14,ND,24
2020/03/14,05:40,0.12,ND,27
2020/03/14,05:50,0.14,ND,28
2020/03/14,06:00,0.13,ND,28
2020/03/14,06:10,0.15,ND,30
2020/03/14,06:20,0.14,ND,32
2020/03/14,06:30,0.15,ND,31
2020/03/14,06:40,0.15,ND,28
2020/03/14,06:50,0.15,ND,29
2020/03/14,07:00,0.16,ND,29
2020/03/14,07:10,0.15,ND,26
2020/03/14,07:20,0.14,ND,24
2020/03/14,07:30,0.15,ND,23
2020/03/14,07:40,0.14,ND,23
2020/03/14,07:50,0.15,ND,21
2020/03/14,08:00,0.14,ND,21
2020/03/14,08:10,0.14,ND,23
2020/03/14,08:20,0.15,ND,25
2020/03/14,08:30,0.14,ND,26
2020/03/14,08:40,0.14,ND,28
2020/03/14,08:50,0.11,ND,31
2020/03/14,09:00,0.11,ND,31
2020/03/14,09:10,0.14,ND,28
2020/03/14,09:20,0.15,ND,28
2020/03/14,09:30,0.15,ND,27
2020/03/14,09:40,0.16,ND,28
2020/03/14,09:50,0.18,ND,25
2020/03/14,10:00,0.18,ND,25
2020/03/14,10:10,0.18,ND,25
2020/03/14,10:20,0.18,ND,25
2020/03/14,10:30,0.19,ND,29
2020/03/14,10:40,0.20,ND,27
2020/03/14,10:50,0.19,ND,28
2020/03/14,11:00,0.21,ND,26
2020/03/14,11:10,0.23,ND,27
2020/03/14,11:20,0.21,ND,28
2020/03/14,11:30,0.20,ND,24
2020/03/14,11:40,0.21,ND,23
2020/03/14,11:50,0.20,ND,21
2020/03/14,12:00,0.18,ND,22
2020/03/14,12:10,0.17,ND,21
2020/03/14,12:20,0.19,ND,19
2020/03/14,12:30,0.21,ND,19
2020/03/14,12:40,0.20,ND,20
2020/03/14,12:50,0.20,ND,21
2020/03/14,13:00,0.22,ND,22
2020/03/14,13:10,0.23,ND,25
2020/03/14,13:20,0.22,ND,27
2020/03/14,13:30,0.21,ND,28
2020/03/14,13:40,0.21,ND,28
2020/03/14,13:50,0.21,ND,27
2020/03/14,14:00,0.21,ND,27
2020/03/14,14:10,0.21,ND,25
2020/03/14,14:20,0.21,ND,23
2020/03/14,14:30,0.21,ND,22
2020/03/14,14:40,0.20,ND,22
2020/03/14,14:50,0.20,ND,23
2020/03/14,15:00,0.18,ND,22
2020/03/14,15:10,0.16,ND,22
2020/03/14,15:20,0.17,ND,22
2020/03/14,15:30,0.17,ND,25
2020/03/14,15:40,0.17,ND,26
2020/03/14,15:50,0.18,ND,25
2020/03/14,16:00,0.18,ND,26
2020/03/14,16:10,0.18,ND,26
2020/03/14,16:20,0.17,ND,25
2020/03/14,16:30,0.17,ND,24
2020/03/14,16:40,0.16,ND,24
2020/03/14,16:50,0.15,ND,27
2020/03/14,17:00,0.13,ND,28
2020/03/14,17:10,0.13,ND,27
2020/03/14,17:20,0.14,ND,26
2020/03/14,17:30,0.13,ND,25
2020/03/14,17:40,0.14,ND,28
2020/03/14,17:50,0.15,ND,23
2020/03/14,18:00,0.15,ND,23
2020/03/14,18:10,0.17,ND,24
2020/03/14,18:20,0.17,ND,27
2020/03/14,18:30,0.16,ND,28
2020/03/14,18:40,0.16,ND,28
2020/03/14,18:50,0.15,ND,32
2020/03/14,19:00,0.15,ND,33
2020/03/14,19:10,0.14,ND,33
2020/03/14,19:20,0.14,ND,31
2020/03/14,19:30,0.14,ND,30
2020/03/14,19:40,0.14,ND,28
2020/03/14,19:50,0.14,ND,28
2020/03/14,20:00,0.13,ND,26
2020/03/14,20:10,0.12,ND,24
2020/03/14,20:20,0.13,ND,24
2020/03/14,20:30,0.13,ND,25
2020/03/14,20:40,0.14,ND,26
2020/03/14,20:50,0.15,ND,24
2020/03/14,21:00,0.16,ND,27
2020/03/14,21:10,0.16,ND,27
2020/03/14,21:20,0.16,ND,32
2020/03/14,21:30,0.16,ND,32
2020/03/14,21:40,0.17,ND,29
2020/03/14,21:50,0.18,ND,29
2020/03/14,22:00,0.20,ND,25
2020/03/14,22:10,0.19,ND,25
2020/03/14,22:20,0.18,ND,22
2020/03/14,22:30,0.18,ND,21
2020/03/14,22:40,0.18,ND,23
2020/03/14,22:50,0.17,ND,23
2020/03/14,23:00,0.16,ND,26
2020/03/14,23:10,0.17,ND,27
2020/03/14,23:20,0.18,ND,25
2020/03/14,23:30,0.17,ND,26
2020/03/14,23:40,0.16,ND,27
2020/03/14,23:50,0.16,ND,29
